Regional Weather Roundup
Issued by NWS

Home | Current Version | Previous Version | Graphics & Text | Print | Product List | Glossary On
Versions: 1 2 3 4 5 6 7 8 9 10 11 12 13 14 15 16 17 18 19 20 21 22 23 24 25 26 27
000
ASUS45 KTFX 280410
RWRMT
MONTANA REGIONAL WEATHER ROUNDUP
NATIONAL WEATHER SERVICE GREAT FALLS MT
1000 PM MDT TUE SEP 27 2016

NOTE: "FAIR" INDICATES FEW OR NO CLOUDS BELOW 12000 FEET WITH NO
SIGNIFICANT WEATHER AND/OR OBSTRUCTIONS TO VISIBILITY.

MTZ001>007-043-280500-
WEST OF THE DIVIDE

CITY           SKY/WX    TMP DP  RH WIND       PRES   REMARKS
KALISPELL      CLEAR     59  44  57 NE6       30.06R
MISSOULA       CLEAR     62  45  53 CALM      30.08R
BUTTE          CLEAR     52  39  61 SE7       30.22R
MULLAN PASS    CLEAR     58  41  53 W3        30.21S
ANACONDA         N/A     57  37  47 SW5       30.18R
DEER LODGE       N/A     55  39  54 W7        30.19R
EUREKA           N/A     57  43  58 NW3         N/A
HAMILTON         N/A     57  45  62 CALM      30.09R
LIBBY            N/A     59  46  63 SE5       30.05R
RONAN            N/A     56  45  66 N1        30.11R
$$

MTZ008-052>055-280500-
SOUTHWEST MONTANA

CITY           SKY/WX    TMP DP  RH WIND       PRES   REMARKS
BOZEMAN        CLEAR     54  42  64 S9        30.15R
DILLON         CLEAR     58  36  43 SW5       30.17R
W YELLOWSTONE    N/A     48  37  66 CALM      30.30R
ENNIS          CLEAR     52  37  58 NE5       30.24R
THREE FORKS      N/A     55  55 100 CALM      30.12R
TWIN BRIDGES     N/A     55  39  54 N5        30.13R
$$

MTZ009-010-012-014-046-048-049-054-280500-
EAST SLOPES AND CENTRAL MONTANA

CITY           SKY/WX    TMP DP  RH WIND       PRES   REMARKS
CUT BANK       CLEAR     50  37  61 N15       30.23R
GREAT FALLS    CLOUDY    54  43  66 N8        30.23R
MALMSTROM AFB  PTCLDY    58  44  60 NE7G16    30.21R
HELENA         CLEAR     65  41  41 NW10      30.14R
CHOTEAU          N/A     52  39  62 N7G15     30.26R
$$

MTZ011-013-016-021-045-047-050-051-280500-
NORTH CENTRAL MONTANA

CITY           SKY/WX    TMP DP  RH WIND       PRES   REMARKS
HAVRE          CLEAR     59  46  62 N6        30.16R
LEWISTOWN      CLEAR     55  41  59 SE6       30.13R
N BAR RANCH      N/A     55  39  54 NW6G18    30.18R
CHINOOK          N/A     63  46  55 NW6       30.14R
$$

MTZ017>020-022>027-061-062-280500-
NORTHEAST MONTANA

CITY           SKY/WX    TMP DP  RH WIND       PRES   REMARKS
GLASGOW        CLEAR     60  48  64 NW7       30.00R
JORDAN           N/A     56  49  77 W7        30.02R
SIDNEY         CLEAR     58  49  72 CALM      29.98R
WOLF POINT     CLEAR     58  50  75 SW3       29.98R
PLENTYWOOD       N/A     66  48  52 CALM      29.98R
POPLAR           N/A     61  48  63 N3        29.98R
$$

MTZ028>42-056>058-280500-
SOUTHCENTRAL AND SOUTHEAST MONTANA

CITY           SKY/WX    TMP DP  RH WIND       PRES   REMARKS
BAKER          CLEAR     55  49  80 CALM      30.05R
BILLINGS       CLEAR     69  42  37 CALM      30.10R
LIVINGSTON     CLEAR     49  39  68 W3        30.16R
MILES CITY     CLEAR     58  48  69 CALM      30.03R
BIG TIMBER     CLEAR     54  39  58 SW5       30.18R
FORSYTH          N/A     61  45  55 S3        30.03S
LAUREL           N/A     66  43  43 CALM      30.08R
ROUNDUP          N/A     66  39  37 W3        30.01R
$$

REGIONAL REPORTS...DAKOTAS

CITY           SKY/WX    TMP DP  RH WIND       PRES   REMARKS
WILLISTON      CLEAR     53  49  86 CALM      29.98R
MINOT          CLEAR     50  43  77 CALM      30.01R
DICKINSON      CLEAR     52  45  77 S6        30.01R
BEACH            N/A     54  50  87 CALM      30.05R
CROSBY           N/A     50  48  93 SE5       30.00R
WATFORD CITY     N/A     57  48  72 E5        30.00R
BISMARCK       CLEAR     48  43  82 E7        30.02R
GRAND FORKS    CLOUDY    52  44  74 NE9       30.03R
FARGO          CLOUDY    52  43  71 NE9       30.00R
BUFFALO SD       N/A     57  47  69 W7        29.99R
RAPID CITY     CLEAR     62  41  46 N12       30.07R
$$

REGIONAL REPORTS...WYOMING/IDAHO/WASHINGTON

CITY           SKY/WX    TMP DP  RH WIND       PRES   REMARKS
GILLETTE       CLEAR     48  45  89 W5        30.15R
SHERIDAN       CLEAR     53  44  71 SW5       30.13R
BUFFALO WY     CLEAR     59  41  51 W8        30.20R
CODY           CLEAR     55  44  66 S3        30.22R
YELLOWSTONE LA   N/A     39  36  89 CALM      30.38R
IDAHO FALLS    CLEAR     54  45  71 CALM      30.17R
SALMON         CLEAR     55  45  67 CALM      30.10R
BOISE          CLEAR     68  45  43 SE5       30.00R
SPOKANE        PTCLDY    65  41  41 SW9       30.03R
$$

REGIONAL REPORTS...ALBERTA

CITY           SKY/WX    TMP DP  RH WIND       PRES   REMARKS
EDMONTON       PTCLDY    43  28  56 W7        30.22R
CALGARY        CLOUDY    50  37  62 VRB2      30.27R
LETHBRIDGE     CLOUDY    54  37  54 NW10      30.25R
MEDICINE HAT   CLEAR     52  37  58 N12       30.21R
WATERTON GATE    N/A     48  39  71 CALM        N/A
CARDSTON         N/A     50  36  57 NW1         N/A
MILK RIVER       N/A     48  37  66 N10         N/A
ONEFOUR          N/A     50  41  71 NW8         N/A
$$

REGIONAL REPORTS...SASKATCHEWAN

CITY           SKY/WX    TMP DP  RH WIND       PRES   REMARKS
SWIFT CURRENT  CLEAR     52  45  76 NW20      30.11R
REGINA         CLEAR     55  46  71 W15G23    29.99R
SASKATOON      PTCLDY    55  43  62 N15       30.09R
CYPRESS HILLS    N/A     50  36  57 N13G21      N/A
VAL MARIE        N/A     57  45  62 N15         N/A
ROCKGLEN         N/A     59  46  63 N15         N/A
ASSINIBOIA       N/A     43  30  61 W9          N/A
$$




USA.gov is the U.S. government's official web portal to all federal, state and local government web resources and services.